Location: Butler
(32.5575°N, 84.2380°W)
Time: 21:08:16
(UTC+00:00)

N. Korean satellite - Pass Details

Date: 09 December 2021
Orbit: 447 x 490 km, 97.3° (Epoch: 27 January)

Event Time Altitude Azimuth Distance (km) Brightness Sun altitude
Rises 10:21:15 0° 21° (NNE) 2,450 10.3 -25.9°
Reaches altitude 10° 10:23:24 10° 31° (NNE) 1,576 9.3 -25.4°
Maximum altitude 10:26:31 35° 98° (E) 747 8.0 -24.8°
Drops below altitude 10° 10:29:38 10° 166° (SSE) 1,577 9.5 -24.2°
Sets 10:31:47 0° 175° (S) 2,451 10.4 -23.7°
